Orbital Elements at Epoch 2459200.5 (2020-Dec-17.0) TDB
Reference: JPL 16 (heliocentric ecliptic J2000)
Element | Value | Uncertainty (1-sigma) | Units |
e | .1329853485896364 | 5.3617e-08 | |
a | 2.346151055477356 | 9.4915e-09 | au |
q | 2.034147339520757 | 1.2638e-07 | au |
i | 6.519821643741632 | 5.639e-06 | deg |
node | 340.7605331569881 | 3.5135e-05 | deg |
peri | 3.725974246430503 | 3.8297e-05 | deg |
M | 220.885312919151 | 1.5606e-05 | deg |
tp | 2459707.727586007646 (2022-May-08.22758601) | 5.7627e-05 | TDB |
period | 1312.599947528403 3.59 | 7.9653e-06 2.181e-08 | d yr |
n | .2742648288824573 | 1.6643e-09 | deg/d |
Q | 2.658154771433956 | 1.0754e-08 | au |
|
| | Orbit Determination Parameters
Additional Information
|